Cincinnati, OH

3:57 AM EDT on August 31, 2016 (GMT -0400)
Cincinnati Municipal-Lunken

Weather History for KLUK - May, 2014

Change the Weather History Date:

Monday, May 12, 2014

  Actual Average Record
Temperature  
Mean Temperature 73 °F -  
Max Temperature 84 °F 73 °F 88 °F (2011)
Min Temperature 62 °F 53 °F 35 °F (2013)
Cooling Degree Days 8    
Growing Degree Days 23 (Base 50)    
Moisture  
Dew Point 65 °F    
Average Humidity 84    
Maximum Humidity 100    
Minimum Humidity 56    
Precipitation  
Precipitation 0.49 in - - ()
Sea Level Pressure  
Sea Level Pressure 30.06 in    
Wind  
Wind Speed 5 mph (SSW)    
Max Wind Speed 20 mph    
Max Gust Speed 25 mph    
Visibility 8 miles    
Events Rain , Thunderstorm    
Averages and records for this station are not official NWS values.
T = Trace of Precipitation, MM = Missing Value Source: NWS Daily Summary

Daily Weather History Graph

Daily Weather History Graph

Search for Another Location

Airport or City:

Trip Planner

Search our weather history database for the weather conditions in past years. The results will help you decide how hot, cold, wet, or windy it might be!

Date:

Astronomy

May. 12, 2014 Rise Set
Actual Time 6:27 AM EDT 8:41 PM EDT
Civil Twilight 5:57 AM EDT 9:11 PM EDT
Nautical Twilight 5:20 AM EDT 9:47 PM EDT
Astronomical Twilight 4:40 AM EDT 10:28 PM EDT
Moon 6:39 PM EDT (5/12) 5:04 AM EDT (5/12)
Length of Visible Light 15h 13m
Length of Day
14h 13m
Waxing Gibbous, 95% of the Moon is Illuminated
May 12
Waxing Gibbous
May 14
Full
May 21
Last Quarter
May 28
New
Jun 5
First Quarter

Hourly Weather History & Observations

Time (EDT) Temp. Heat Index Dew Point Humidity Pressure Visibility Wind Dir Wind Speed Gust Speed Precip Events Conditions
12:53 AM 64.9 °F - 64.0 °F 97% 30.04 in 9.0 mi Calm Calm - N/A   Mostly Cloudy
1:53 AM 64.0 °F - 64.0 °F 100% 30.02 in 7.0 mi Calm Calm - N/A   Clear
2:27 AM 64.0 °F - 64.0 °F 100% 30.02 in 1.8 mi Calm Calm - N/A   Clear
2:43 AM 64.0 °F - 64.0 °F 100% 30.02 in 3.0 mi Calm Calm - N/A   Partly Cloudy
2:53 AM 64.0 °F - 64.0 °F 100% 30.00 in 6.0 mi Calm Calm - N/A   Clear
3:53 AM 66.9 °F - 64.9 °F 93% 30.02 in 10.0 mi WSW 4.6 mph - N/A   Scattered Clouds
4:50 AM 68.0 °F - 60.8 °F 78% 30.09 in 10.0 mi NNW 17.3 mph - N/A Thunderstorm Overcast
4:53 AM 68.0 °F - 61.0 °F 78% 30.07 in 10.0 mi North 17.3 mph - N/A Thunderstorm Overcast
5:34 AM 64.0 °F - 62.1 °F 93% 30.09 in 4.0 mi ENE 8.1 mph - 0.11 in Rain , Thunderstorm Heavy Rain
5:43 AM 63.0 °F - 62.1 °F 97% 30.11 in 1.5 mi Calm Calm - 0.23 in Rain , Thunderstorm Light Rain
5:46 AM 63.0 °F - 63.0 °F 100% 30.11 in 0.8 mi Calm Calm - 0.32 in Rain , Thunderstorm Heavy Thunderstorms and Rain
5:53 AM 63.0 °F - 62.1 °F 97% 30.10 in 1.0 mi North 6.9 mph - 0.41 in Rain , Thunderstorm Heavy Thunderstorms and Rain
6:01 AM 63.0 °F - 63.0 °F 100% 30.11 in 3.0 mi East 4.6 mph - 0.03 in Rain , Thunderstorm Thunderstorms and Rain
6:14 AM 63.0 °F - 63.0 °F 100% 30.11 in 9.0 mi Calm Calm - 0.05 in Rain , Thunderstorm Light Rain
6:26 AM 62.6 °F - 62.6 °F 100% 30.11 in 6.0 mi Calm Calm - N/A Rain , Thunderstorm Light Thunderstorms and Rain
6:41 AM 63.0 °F - 63.0 °F 100% 30.11 in 9.0 mi Calm Calm - 0.08 in Rain , Thunderstorm Light Rain
6:51 AM 62.6 °F - 62.6 °F 100% 30.11 in 8.0 mi Calm Calm - 0.08 in Rain Light Rain
6:53 AM 63.0 °F - 62.1 °F 97% 30.10 in 8.0 mi Calm Calm - 0.08 in Rain Light Rain
7:53 AM 64.0 °F - 64.0 °F 100% 30.09 in 10.0 mi SSW 6.9 mph - 0.00 in   Mostly Cloudy
8:53 AM 66.9 °F - 64.0 °F 90% 30.09 in 10.0 mi South 6.9 mph - N/A   Mostly Cloudy
9:53 AM 71.6 °F - 66.2 °F 83% 30.10 in 10.0 mi South 6.9 mph - N/A   Partly Cloudy
10:53 AM 75.9 °F - 68.0 °F 76% 30.09 in 10.0 mi South 9.2 mph - N/A   Partly Cloudy
11:53 AM 80.1 °F 83.2 °F 70.0 °F 71% 30.07 in 10.0 mi SSW 11.5 mph - N/A   Scattered Clouds
12:53 PM 82.0 °F 85.5 °F 69.1 °F 65% 30.07 in 10.0 mi SW 19.6 mph 24.2 mph N/A   Scattered Clouds
1:53 PM 84.0 °F 87.0 °F 68.0 °F 58% 30.06 in 10.0 mi SSW 19.6 mph 25.3 mph N/A   Mostly Cloudy
2:53 PM 82.9 °F 85.4 °F 66.9 °F 58% 30.05 in 10.0 mi SSW 10.4 mph - N/A   Scattered Clouds
3:53 PM 84.0 °F 86.5 °F 66.9 °F 56% 30.02 in 10.0 mi WSW 12.7 mph - N/A   Clear
4:53 PM 84.0 °F 86.5 °F 66.9 °F 56% 30.00 in 10.0 mi SSW 12.7 mph - N/A   Scattered Clouds
5:53 PM 84.0 °F 87.0 °F 68.0 °F 58% 30.00 in 10.0 mi SSW 17.3 mph - N/A   Partly Cloudy
6:53 PM 80.1 °F 82.1 °F 66.0 °F 62% 29.98 in 10.0 mi SSW 12.7 mph 19.6 mph N/A   Scattered Clouds
7:53 PM 80.1 °F 81.7 °F 64.0 °F 58% 29.99 in 10.0 mi West 11.5 mph - N/A   Partly Cloudy
8:53 PM 75.9 °F - 64.0 °F 67% 30.01 in 10.0 mi SE 4.6 mph - N/A   Mostly Cloudy
9:53 PM 71.1 °F - 64.9 °F 81% 30.01 in 10.0 mi Calm Calm - N/A   Clear
10:53 PM 66.2 °F - 64.4 °F 94% 30.02 in 10.0 mi Calm Calm - N/A   Clear
11:53 PM 66.0 °F - 64.0 °F 93% 30.03 in 9.0 mi Calm Calm - N/A   Clear